カタログに戻る

COSMOS 1275 DEB

運用中PO
NORAD 20100·DEBRIS·🇷🇺 Russia

打ち上げ Jun 4, 1981 から Plesetsk Cosmodrome

Loading…

次のパス (今後24時間)

TLE

最新Source: Space-Track

元期: Sep 14, 2026, 06:27 UTC

1 20100U 81053ML  26257.26926249  .00000067  00000-0  83704-4 0  9991
2 20100  82.8981   6.0933 0172185 157.1511 231.6179 13.43334107867073

AllMySatでCOSMOS 1275 DEBをリアルタイム追跡

Download on the App Store